Time,TemperatureF,DewpointF,PressureIn,WindDirection,WindDirectionDegrees,WindSpeedMPH,WindSpeedGustMPH,Humidity,HourlyPrecipIn,Conditions,Clouds,dailyrainin,SolarRadiationWatts/m^2,SoftwareType,DateUTC
2013-05-21 00:01:00,50.2,41.5,30.78,North,355,0.0,3.0,72,0.00,,,0.00,0.00,VWS V14.00,2013-05-21 06:01:00,
2013-05-21 00:06:00,50.1,41.4,30.78,North,355,0.0,3.0,72,0.00,,,0.00,0.00,VWS V14.00,2013-05-21 06:06:00,
2013-05-21 00:11:00,50.3,41.6,30.77,North,355,0.0,1.0,72,0.00,,,0.00,0.00,VWS V14.00,2013-05-21 06:11:00,
2013-05-21 00:16:00,50.3,41.6,30.77,North,355,0.0,1.0,72,0.00,,,0.00,0.00,VWS V14.00,2013-05-21 06:16:00,
2013-05-21 00:21:00,50.3,41.6,30.77,North,355,0.0,1.0,72,0.00,,,0.00,0.00,VWS V14.00,2013-05-21 06:21:00,
2013-05-21 00:26:00,50.3,41.6,30.77,North,355,0.0,0.0,72,0.00,,,0.00,0.00,VWS V14.00,2013-05-21 06:26:00,
2013-05-21 00:31:00,50.3,41.6,30.77,North,355,0.0,0.0,72,0.00,,,0.00,0.00,VWS V14.00,2013-05-21 06:31:00,
2013-05-21 00:36:00,50.2,41.9,30.77,North,355,0.0,0.0,73,0.00,,,0.00,0.00,VWS V14.00,2013-05-21 06:36:00,
2013-05-21 00:41:00,49.9,41.6,30.77,North,355,0.0,2.0,73,0.00,,,0.00,0.00,VWS V14.00,2013-05-21 06:41:00,
2013-05-21 00:46:00,49.5,41.2,30.77,North,355,0.0,2.0,73,0.00,,,0.00,0.00,VWS V14.00,2013-05-21 06:46:00,
2013-05-21 00:51:00,49.2,40.9,30.77,North,355,0.0,2.0,73,0.00,,,0.00,0.00,VWS V14.00,2013-05-21 06:51:00,
2013-05-21 00:56:00,48.9,41.0,30.77,North,355,0.0,0.0,74,0.00,,,0.00,0.00,VWS V14.00,2013-05-21 06:56:00,
2013-05-21 01:01:00,48.5,41.0,30.77,North,355,0.0,0.0,75,0.00,,,0.00,0.00,VWS V14.00,2013-05-21 07:01:00,
2013-05-21 01:06:00,48.2,40.7,30.78,North,355,0.0,3.0,75,0.00,,,0.00,0.00,VWS V14.00,2013-05-21 07:06:00,
2013-05-21 01:11:00,47.7,40.2,30.77,North,355,2.0,4.0,75,0.00,,,0.00,0.00,VWS V14.00,2013-05-21 07:11:00,
2013-05-21 01:16:00,47.1,39.9,30.77,North,355,0.0,4.0,76,0.00,,,0.00,0.00,VWS V14.00,2013-05-21 07:16:00,
2013-05-21 01:21:00,46.9,40.4,30.77,North,355,0.0,4.0,78,0.00,,,0.00,0.00,VWS V14.00,2013-05-21 07:21:00,
2013-05-21 01:26:00,46.9,40.7,30.77,North,355,0.0,0.0,79,0.00,,,0.00,0.00,VWS V14.00,2013-05-21 07:26:00,
2013-05-21 01:31:00,46.9,40.7,30.76,North,355,0.0,1.0,79,0.00,,,0.00,0.00,VWS V14.00,2013-05-21 07:31:00,
2013-05-21 01:36:00,47.0,40.5,30.77,North,355,0.0,3.0,78,0.00,,,0.00,0.00,VWS V14.00,2013-05-21 07:36:00,
2013-05-21 01:41:00,47.2,40.0,30.77,North,355,0.0,1.0,76,0.00,,,0.00,0.00,VWS V14.00,2013-05-21 07:41:00,
2013-05-21 01:46:00,47.4,40.2,30.76,North,360,0.0,2.0,76,0.00,,,0.00,0.00,VWS V14.00,2013-05-21 07:46:00,
2013-05-21 01:51:00,47.4,40.6,30.76,North,360,0.0,2.0,77,0.00,,,0.00,0.00,VWS V14.00,2013-05-21 07:51:00,
2013-05-21 01:56:00,47.5,40.3,30.76,North,360,0.0,3.0,76,0.00,,,0.00,0.00,VWS V14.00,2013-05-21 07:56:00,
2013-05-21 02:01:00,47.5,40.7,30.76,North,360,0.0,3.0,77,0.00,,,0.00,0.00,VWS V14.00,2013-05-21 08:01:00,
2013-05-21 02:06:00,47.4,40.2,30.76,North,360,0.0,3.0,76,0.00,,,0.00,0.00,VWS V14.00,2013-05-21 08:06:00,
2013-05-21 02:11:00,47.4,40.2,30.76,North,360,0.0,0.0,76,0.00,,,0.00,0.00,VWS V14.00,2013-05-21 08:11:00,
2013-05-21 02:16:00,47.2,40.4,30.76,North,360,0.0,0.0,77,0.00,,,0.00,0.00,VWS V14.00,2013-05-21 08:16:00,
2013-05-21 02:21:00,47.0,40.5,30.76,North,360,0.0,0.0,78,0.00,,,0.00,0.00,VWS V14.00,2013-05-21 08:21:00,
2013-05-21 02:26:00,46.9,40.1,30.76,North,360,0.0,0.0,77,0.00,,,0.00,0.00,VWS V14.00,2013-05-21 08:26:00,
2013-05-21 02:31:00,46.8,40.3,30.76,North,360,0.0,0.0,78,0.00,,,0.00,0.00,VWS V14.00,2013-05-21 08:31:00,
2013-05-21 02:36:00,46.6,40.1,30.76,North,360,0.0,0.0,78,0.00,,,0.00,0.00,VWS V14.00,2013-05-21 08:36:00,
2013-05-21 02:41:00,46.5,40.0,30.76,North,360,0.0,0.0,78,0.00,,,0.00,0.00,VWS V14.00,2013-05-21 08:41:00,
2013-05-21 02:46:00,46.4,40.2,30.76,North,360,0.0,0.0,79,0.00,,,0.00,0.00,VWS V14.00,2013-05-21 08:46:00,
2013-05-21 02:51:00,46.3,39.8,30.75,North,360,0.0,0.0,78,0.00,,,0.00,0.00,VWS V14.00,2013-05-21 08:51:00,
2013-05-21 02:56:00,46.1,39.6,30.75,North,360,0.0,0.0,78,0.00,,,0.00,0.00,VWS V14.00,2013-05-21 08:56:00,
2013-05-21 03:01:00,46.1,40.0,30.75,North,360,0.0,0.0,79,0.00,,,0.00,0.00,VWS V14.00,2013-05-21 09:01:00,
2013-05-21 03:06:00,45.9,40.1,30.75,North,360,0.0,0.0,80,0.00,,,0.00,0.00,VWS V14.00,2013-05-21 09:06:00,
2013-05-21 03:11:00,45.8,40.0,30.74,North,360,0.0,0.0,80,0.00,,,0.00,0.00,VWS V14.00,2013-05-21 09:11:00,
2013-05-21 03:16:00,45.8,39.7,30.74,North,360,0.0,0.0,79,0.00,,,0.00,0.00,VWS V14.00,2013-05-21 09:16:00,
2013-05-21 03:21:00,45.7,39.6,30.74,North,360,0.0,0.0,79,0.00,,,0.00,0.00,VWS V14.00,2013-05-21 09:21:00,
2013-05-21 03:26:00,45.7,39.9,30.73,North,360,0.0,0.0,80,0.00,,,0.00,0.00,VWS V14.00,2013-05-21 09:26:00,
2013-05-21 03:31:00,45.7,40.2,30.73,North,360,0.0,0.0,81,0.00,,,0.00,0.00,VWS V14.00,2013-05-21 09:31:00,
2013-05-21 03:36:00,45.6,39.8,30.73,North,360,0.0,0.0,80,0.00,,,0.00,0.00,VWS V14.00,2013-05-21 09:36:00,
2013-05-21 03:41:00,45.5,40.0,30.73,North,360,0.0,1.0,81,0.00,,,0.00,0.00,VWS V14.00,2013-05-21 09:41:00,
2013-05-21 03:46:00,45.3,39.5,30.74,North,360,0.0,1.0,80,0.00,,,0.00,0.00,VWS V14.00,2013-05-21 09:46:00,
2013-05-21 03:51:00,45.0,38.9,30.73,North,360,0.0,1.0,79,0.00,,,0.00,0.00,VWS V14.00,2013-05-21 09:51:00,
2013-05-21 03:56:00,44.8,39.0,30.73,North,360,0.0,0.0,80,0.00,,,0.00,0.00,VWS V14.00,2013-05-21 09:56:00,
2013-05-21 04:01:00,44.5,39.0,30.73,North,360,0.0,0.0,81,0.00,,,0.00,0.00,VWS V14.00,2013-05-21 10:01:00,
2013-05-21 04:06:00,44.3,39.2,30.73,North,360,0.0,0.0,82,0.00,,,0.00,0.00,VWS V14.00,2013-05-21 10:06:00,
2013-05-21 04:11:00,44.1,39.0,30.73,North,360,0.0,0.0,82,0.00,,,0.00,0.00,VWS V14.00,2013-05-21 10:11:00,
2013-05-21 04:16:00,44.0,39.2,30.73,North,360,0.0,0.0,83,0.00,,,0.00,0.00,VWS V14.00,2013-05-21 10:16:00,
2013-05-21 04:21:00,44.0,39.2,30.73,North,360,0.0,0.0,83,0.00,,,0.00,0.00,VWS V14.00,2013-05-21 10:21:00,
2013-05-21 04:26:00,43.9,39.1,30.73,North,360,0.0,0.0,83,0.00,,,0.00,0.00,VWS V14.00,2013-05-21 10:26:00,
2013-05-21 04:31:00,43.7,38.9,30.73,North,360,0.0,2.0,83,0.00,,,0.00,0.00,VWS V14.00,2013-05-21 10:31:00,
2013-05-21 04:36:00,43.6,38.8,30.72,North,360,0.0,2.0,83,0.00,,,0.00,0.00,VWS V14.00,2013-05-21 10:36:00,
2013-05-21 04:41:00,43.3,38.5,30.73,North,360,0.0,0.0,83,0.00,,,0.00,0.00,VWS V14.00,2013-05-21 10:41:00,
2013-05-21 04:46:00,43.0,38.2,30.73,North,360,0.0,0.0,83,0.00,,,0.00,0.00,VWS V14.00,2013-05-21 10:46:00,
2013-05-21 04:51:00,42.7,37.9,30.73,North,360,0.0,0.0,83,0.00,,,0.00,0.00,VWS V14.00,2013-05-21 10:51:00,
2013-05-21 04:56:00,42.5,38.0,30.73,North,360,0.0,0.0,84,0.00,,,0.00,0.00,VWS V14.00,2013-05-21 10:56:00,
2013-05-21 05:01:00,42.4,37.9,30.73,North,360,1.0,2.0,84,0.00,,,0.00,0.00,VWS V14.00,2013-05-21 11:01:00,
2013-05-21 05:06:00,42.5,38.3,30.73,North,360,0.0,2.0,85,0.00,,,0.00,0.00,VWS V14.00,2013-05-21 11:06:00,
2013-05-21 05:11:00,42.5,38.0,30.72,North,360,0.0,0.0,84,0.00,,,0.00,0.00,VWS V14.00,2013-05-21 11:11:00,
2013-05-21 05:16:00,42.5,38.3,30.72,North,360,0.0,0.0,85,0.00,,,0.00,0.00,VWS V14.00,2013-05-21 11:16:00,
2013-05-21 05:21:00,42.6,38.4,30.72,North,360,0.0,0.0,85,0.00,,,0.00,0.00,VWS V14.00,2013-05-21 11:21:00,
2013-05-21 05:26:00,42.7,38.5,30.72,North,360,0.0,0.0,85,0.00,,,0.00,0.00,VWS V14.00,2013-05-21 11:26:00,
2013-05-21 05:31:00,42.8,38.6,30.71,North,360,0.0,0.0,85,0.00,,,0.00,0.00,VWS V14.00,2013-05-21 11:31:00,
2013-05-21 05:36:00,42.9,38.4,30.71,North,360,0.0,0.0,84,0.00,,,0.00,0.00,VWS V14.00,2013-05-21 11:36:00,
2013-05-21 05:41:00,43.1,38.3,30.71,North,360,0.0,0.0,83,0.00,,,0.00,0.00,VWS V14.00,2013-05-21 11:41:00,
2013-05-21 05:46:00,43.2,38.4,30.71,North,360,0.0,0.0,83,0.00,,,0.00,0.00,VWS V14.00,2013-05-21 11:46:00,
2013-05-21 05:51:00,43.1,37.7,30.71,North,360,0.0,2.0,81,0.00,,,0.00,0.00,VWS V14.00,2013-05-21 11:51:00,
2013-05-21 05:56:00,42.8,37.4,30.71,North,360,0.0,0.0,81,0.00,,,0.00,0.00,VWS V14.00,2013-05-21 11:56:00,
2013-05-21 06:01:00,42.5,37.4,30.71,North,360,0.0,0.0,82,0.00,,,0.00,5.00,VWS V14.00,2013-05-21 12:01:00,
2013-05-21 06:06:00,42.2,37.1,30.71,North,360,0.0,0.0,82,0.00,,,0.00,5.00,VWS V14.00,2013-05-21 12:06:00,
2013-05-21 06:11:00,42.0,37.2,30.71,North,360,0.0,0.0,83,0.00,,,0.00,7.00,VWS V14.00,2013-05-21 12:11:00,
2013-05-21 06:16:00,42.0,37.8,30.72,North,360,1.0,2.0,85,0.00,,,0.00,9.00,VWS V14.00,2013-05-21 12:16:00,
2013-05-21 06:21:00,42.1,37.9,30.72,North,360,0.0,2.0,85,0.00,,,0.00,11.00,VWS V14.00,2013-05-21 12:21:00,
2013-05-21 06:26:00,42.1,37.9,30.71,North,360,0.0,0.0,85,0.00,,,0.00,11.00,VWS V14.00,2013-05-21 12:26:00,
2013-05-21 06:31:00,42.1,37.9,30.71,North,360,0.0,2.0,85,0.00,,,0.00,14.00,VWS V14.00,2013-05-21 12:31:00,
2013-05-21 06:36:00,42.1,37.9,30.71,North,360,0.0,2.0,85,0.00,,,0.00,16.00,VWS V14.00,2013-05-21 12:36:00,
2013-05-21 06:41:00,42.1,37.9,30.71,North,360,0.0,2.0,85,0.00,,,0.00,18.00,VWS V14.00,2013-05-21 12:41:00,
2013-05-21 06:46:00,42.1,37.9,30.71,North,360,0.0,2.0,85,0.00,,,0.00,19.00,VWS V14.00,2013-05-21 12:46:00,
2013-05-21 06:51:00,42.2,38.3,30.70,North,360,0.0,2.0,86,0.00,,,0.00,19.00,VWS V14.00,2013-05-21 12:51:00,
2013-05-21 06:56:00,42.3,38.4,30.70,North,360,0.0,0.0,86,0.00,,,0.00,19.00,VWS V14.00,2013-05-21 12:56:00,
2013-05-21 07:01:00,42.4,38.5,30.70,North,360,0.0,1.0,86,0.00,,,0.00,21.00,VWS V14.00,2013-05-21 13:01:00,
2013-05-21 07:06:00,42.6,38.7,30.69,North,360,2.0,2.0,86,0.00,,,0.00,23.00,VWS V14.00,2013-05-21 13:06:00,
2013-05-21 07:11:00,43.0,39.1,30.70,North,360,0.0,2.0,86,0.00,,,0.00,23.00,VWS V14.00,2013-05-21 13:11:00,
2013-05-21 07:16:00,43.4,39.2,30.70,North,360,0.0,2.0,85,0.00,,,0.00,23.00,VWS V14.00,2013-05-21 13:16:00,
2013-05-21 07:21:00,43.9,39.4,30.70,North,360,0.0,2.0,84,0.00,,,0.00,25.00,VWS V14.00,2013-05-21 13:21:00,
2013-05-21 07:26:00,44.2,39.7,30.70,North,360,2.0,3.0,84,0.00,,,0.00,26.00,VWS V14.00,2013-05-21 13:26:00,
2013-05-21 07:31:00,44.5,40.0,30.70,North,360,2.0,3.0,84,0.00,,,0.00,26.00,VWS V14.00,2013-05-21 13:31:00,
2013-05-21 07:36:00,44.7,40.2,30.69,North,360,3.0,3.0,84,0.00,,,0.00,28.00,VWS V14.00,2013-05-21 13:36:00,
2013-05-21 07:41:00,45.0,40.5,30.68,North,360,0.0,2.0,84,0.00,,,0.00,33.00,VWS V14.00,2013-05-21 13:41:00,
2013-05-21 07:46:00,45.2,40.3,30.68,North,360,0.0,3.0,83,0.00,,,0.00,46.00,VWS V14.00,2013-05-21 13:46:00,
2013-05-21 07:51:00,45.5,40.7,30.68,North,360,0.0,3.0,83,0.00,,,0.00,69.00,VWS V14.00,2013-05-21 13:51:00,
2013-05-21 07:56:00,45.8,40.9,30.68,North,360,0.0,0.0,83,0.00,,,0.00,241.00,VWS V14.00,2013-05-21 13:56:00,
2013-05-21 08:01:00,46.2,41.3,30.68,North,360,1.0,3.0,83,0.00,,,0.00,111.00,VWS V14.00,2013-05-21 14:01:00,
2013-05-21 08:06:00,46.7,41.5,30.67,North,360,0.0,3.0,82,0.00,,,0.00,134.00,VWS V14.00,2013-05-21 14:06:00,
2013-05-21 08:11:00,47.3,41.8,30.70,North,360,0.0,3.0,81,0.00,,,0.00,81.00,VWS V14.00,2013-05-21 14:11:00,
2013-05-21 08:16:00,47.7,41.8,30.70,North,360,0.0,3.0,80,0.00,,,0.00,353.00,VWS V14.00,2013-05-21 14:16:00,
2013-05-21 08:21:00,48.2,42.3,30.70,North,360,0.0,3.0,80,0.00,,,0.00,338.00,VWS V14.00,2013-05-21 14:21:00,
2013-05-21 08:26:00,48.9,42.3,30.69,North,360,0.0,0.0,78,0.00,,,0.00,348.00,VWS V14.00,2013-05-21 14:26:00,
2013-05-21 08:31:00,49.4,42.5,30.68,North,360,0.0,0.0,77,0.00,,,0.00,221.00,VWS V14.00,2013-05-21 14:31:00,
2013-05-21 08:36:00,50.0,43.1,30.69,North,360,0.0,0.0,77,0.00,,,0.00,383.00,VWS V14.00,2013-05-21 14:36:00,
2013-05-21 08:41:00,50.6,43.3,30.67,North,360,0.0,0.0,76,0.00,,,0.00,258.00,VWS V14.00,2013-05-21 14:41:00,
2013-05-21 08:46:00,51.2,43.6,30.67,North,360,0.0,0.0,75,0.00,,,0.00,364.00,VWS V14.00,2013-05-21 14:46:00,
2013-05-21 08:51:00,51.8,42.7,30.67,North,360,0.0,0.0,71,0.00,,,0.00,278.00,VWS V14.00,2013-05-21 14:51:00,
2013-05-21 08:56:00,52.4,43.3,30.67,North,360,0.0,0.0,71,0.00,,,0.00,533.00,VWS V14.00,2013-05-21 14:56:00,
2013-05-21 09:01:00,52.9,44.1,30.65,North,360,0.0,2.0,72,0.00,,,0.00,585.00,VWS V14.00,2013-05-21 15:01:00,
2013-05-21 09:06:00,53.5,44.7,30.65,North,360,2.0,3.0,72,0.00,,,0.00,464.00,VWS V14.00,2013-05-21 15:06:00,
2013-05-21 09:11:00,54.2,44.6,30.65,North,360,0.0,2.0,70,0.00,,,0.00,446.00,VWS V14.00,2013-05-21 15:11:00,
2013-05-21 09:16:00,54.8,45.6,30.65,North,360,3.0,3.0,71,0.00,,,0.00,436.00,VWS V14.00,2013-05-21 15:16:00,
2013-05-21 09:21:00,55.5,47.0,30.65,North,360,2.0,4.0,73,0.00,,,0.00,596.00,VWS V14.00,2013-05-21 15:21:00,
2013-05-21 09:26:00,56.1,46.8,30.64,North,360,3.0,4.0,71,0.00,,,0.00,359.00,VWS V14.00,2013-05-21 15:26:00,
2013-05-21 09:31:00,56.5,46.1,30.63,North,360,0.0,4.0,68,0.00,,,0.00,371.00,VWS V14.00,2013-05-21 15:31:00,
2013-05-21 09:36:00,56.7,45.1,30.63,North,360,3.0,4.0,65,0.00,,,0.00,230.00,VWS V14.00,2013-05-21 15:36:00,
2013-05-21 09:41:00,56.7,45.5,30.63,North,360,0.0,4.0,66,0.00,,,0.00,267.00,VWS V14.00,2013-05-21 15:41:00,
2013-05-21 09:46:00,56.7,45.5,30.63,North,360,0.0,4.0,66,0.00,,,0.00,250.00,VWS V14.00,2013-05-21 15:46:00,
2013-05-21 09:51:00,56.7,45.1,30.63,North,360,0.0,4.0,65,0.00,,,0.00,323.00,VWS V14.00,2013-05-21 15:51:00,
2013-05-21 09:56:00,56.8,45.2,30.62,North,360,0.0,1.0,65,0.00,,,0.00,311.00,VWS V14.00,2013-05-21 15:56:00,
2013-05-21 10:01:00,57.0,46.2,30.62,North,360,0.0,1.0,67,0.00,,,0.00,397.00,VWS V14.00,2013-05-21 16:01:00,
2013-05-21 10:06:00,57.2,44.7,30.62,North,360,0.0,1.0,63,0.00,,,0.00,343.00,VWS V14.00,2013-05-21 16:06:00,
2013-05-21 10:11:00,57.5,44.2,30.64,North,360,0.0,2.0,61,0.00,,,0.00,334.00,VWS V14.00,2013-05-21 16:11:00,
2013-05-21 10:16:00,57.8,45.7,30.62,North,360,0.0,4.0,64,0.00,,,0.00,571.00,VWS V14.00,2013-05-21 16:16:00,
2013-05-21 10:21:00,58.2,45.3,30.62,North,360,2.0,4.0,62,0.00,,,0.00,601.00,VWS V14.00,2013-05-21 16:21:00,
2013-05-21 10:26:00,59.0,46.0,30.62,North,355,0.0,4.0,62,0.00,,,0.00,712.00,VWS V14.00,2013-05-21 16:26:00,
2013-05-21 10:31:00,59.9,46.0,30.61,North,355,0.0,4.0,60,0.00,,,0.00,517.00,VWS V14.00,2013-05-21 16:31:00,
2013-05-21 10:36:00,60.4,45.1,30.60,North,355,0.0,4.0,57,0.00,,,0.00,571.00,VWS V14.00,2013-05-21 16:36:00,
2013-05-21 10:41:00,60.8,45.0,30.60,North,355,0.0,3.0,56,0.00,,,0.00,638.00,VWS V14.00,2013-05-21 16:41:00,
2013-05-21 10:46:00,61.4,46.0,30.60,North,355,0.0,3.0,57,0.00,,,0.00,510.00,VWS V14.00,2013-05-21 16:46:00,
2013-05-21 10:51:00,61.9,47.4,30.58,North,355,0.0,4.0,59,0.00,,,0.00,612.00,VWS V14.00,2013-05-21 16:51:00,
2013-05-21 10:56:00,62.2,46.3,30.58,North,355,2.0,4.0,56,0.00,,,0.00,621.00,VWS V14.00,2013-05-21 16:56:00,
2013-05-21 11:01:00,62.6,45.2,30.58,North,355,0.0,4.0,53,0.00,,,0.00,772.00,VWS V14.00,2013-05-21 17:01:00,
2013-05-21 11:06:00,63.1,44.7,30.57,North,355,0.0,4.0,51,0.00,,,0.00,701.00,VWS V14.00,2013-05-21 17:06:00,
2013-05-21 11:11:00,63.5,45.1,30.59,North,355,0.0,3.0,51,0.00,,,0.00,552.00,VWS V14.00,2013-05-21 17:11:00,
2013-05-21 11:16:00,63.9,46.0,30.58,North,355,4.0,5.0,52,0.00,,,0.00,916.00,VWS V14.00,2013-05-21 17:16:00,
2013-05-21 11:21:00,64.6,46.6,30.58,North,355,4.0,6.0,52,0.00,,,0.00,789.00,VWS V14.00,2013-05-21 17:21:00,
2013-05-21 11:26:00,64.9,46.9,30.57,North,355,4.0,6.0,52,0.00,,,0.00,719.00,VWS V14.00,2013-05-21 17:26:00,
2013-05-21 11:31:00,65.0,47.5,30.57,North,355,3.0,6.0,53,0.00,,,0.00,504.00,VWS V14.00,2013-05-21 17:31:00,
2013-05-21 11:36:00,65.1,46.0,30.57,North,355,4.0,6.0,50,0.00,,,0.00,650.00,VWS V14.00,2013-05-21 17:36:00,
2013-05-21 11:41:00,65.4,45.2,30.57,North,355,0.0,5.0,48,0.00,,,0.00,935.00,VWS V14.00,2013-05-21 17:41:00,
2013-05-21 11:46:00,66.0,45.2,30.55,NNW,348,4.0,6.0,47,0.00,,,0.00,875.00,VWS V14.00,2013-05-21 17:46:00,
2013-05-21 11:51:00,66.3,46.6,30.55,NNW,348,3.0,6.0,49,0.00,,,0.00,459.00,VWS V14.00,2013-05-21 17:51:00,
2013-05-21 11:56:00,66.5,45.1,30.54,NNW,348,0.0,6.0,46,0.00,,,0.00,578.00,VWS V14.00,2013-05-21 17:56:00,
2013-05-21 12:01:00,66.6,45.8,30.54,NNW,348,1.0,6.0,47,0.00,,,0.00,468.00,VWS V14.00,2013-05-21 18:01:00,
2013-05-21 12:06:00,66.7,45.8,30.54,NNW,348,3.0,6.0,47,0.00,,,0.00,547.00,VWS V14.00,2013-05-21 18:06:00,
2013-05-21 12:11:00,66.7,45.8,30.55,NNW,348,1.0,5.0,47,0.00,,,0.00,592.00,VWS V14.00,2013-05-21 18:11:00,
2013-05-21 12:16:00,67.0,46.1,30.54,NNW,348,4.0,5.0,47,0.00,,,0.00,701.00,VWS V14.00,2013-05-21 18:16:00,
2013-05-21 12:21:00,67.2,46.3,30.54,North,349,1.0,5.0,47,0.00,,,0.00,536.00,VWS V14.00,2013-05-21 18:21:00,
2013-05-21 12:26:00,67.6,47.2,30.52,North,349,1.0,4.0,48,0.00,,,0.00,788.00,VWS V14.00,2013-05-21 18:26:00,
2013-05-21 12:31:00,68.2,49.4,30.52,NNW,348,4.0,5.0,51,0.00,,,0.00,782.00,VWS V14.00,2013-05-21 18:31:00,
2013-05-21 12:36:00,68.9,49.0,30.52,NNW,347,3.0,6.0,49,0.00,,,0.00,988.00,VWS V14.00,2013-05-21 18:36:00,
2013-05-21 12:41:00,69.4,49.4,30.51,NNW,348,6.0,6.0,49,0.00,,,0.00,889.00,VWS V14.00,2013-05-21 18:41:00,
2013-05-21 12:46:00,69.5,47.2,30.50,North,355,4.0,7.0,45,0.00,,,0.00,659.00,VWS V14.00,2013-05-21 18:46:00,
2013-05-21 12:51:00,69.5,47.2,30.50,NNW,342,6.0,7.0,45,0.00,,,0.00,1030.00,VWS V14.00,2013-05-21 18:51:00,
2013-05-21 12:56:00,70.3,48.6,30.49,North,5,0.0,7.0,46,0.00,,,0.00,940.00,VWS V14.00,2013-05-21 18:56:00,
2013-05-21 13:01:00,70.6,49.4,30.49,North,360,2.0,7.0,47,0.00,,,0.00,916.00,VWS V14.00,2013-05-21 19:01:00,
2013-05-21 13:06:00,71.0,47.4,30.48,NNW,334,0.0,9.0,43,0.00,,,0.00,935.00,VWS V14.00,2013-05-21 19:06:00,
2013-05-21 13:11:00,71.3,47.7,30.48,North,5,0.0,6.0,43,0.00,,,0.00,1032.00,VWS V14.00,2013-05-21 19:11:00,
2013-05-21 13:16:00,71.9,47.0,30.47,North,5,3.0,7.0,41,0.00,,,0.00,942.00,VWS V14.00,2013-05-21 19:16:00,
2013-05-21 13:21:00,72.4,51.0,30.47,North,360,5.0,7.0,47,0.00,,,0.00,905.00,VWS V14.00,2013-05-21 19:21:00,
2013-05-21 13:26:00,72.8,47.1,30.45,NNW,342,4.0,9.0,40,0.00,,,0.00,951.00,VWS V14.00,2013-05-21 19:26:00,
2013-05-21 13:31:00,72.8,46.4,30.45,North,360,0.0,10.0,39,0.00,,,0.00,773.00,VWS V14.00,2013-05-21 19:31:00,
2013-05-21 13:36:00,72.7,48.3,30.45,North,360,6.0,10.0,42,0.00,,,0.00,251.00,VWS V14.00,2013-05-21 19:36:00,
2013-05-21 13:41:00,72.4,47.4,30.45,North,355,3.0,6.0,41,0.00,,,0.00,765.00,VWS V14.00,2013-05-21 19:41:00,
2013-05-21 13:46:00,72.6,48.2,30.44,North,355,4.0,7.0,42,0.00,,,0.00,1000.00,VWS V14.00,2013-05-21 19:46:00,
2013-05-21 13:51:00,73.1,47.4,30.43,North,355,5.0,7.0,40,0.00,,,0.00,998.00,VWS V14.00,2013-05-21 19:51:00,
2013-05-21 13:56:00,73.3,44.0,30.43,NNW,343,5.0,7.0,35,0.00,,,0.00,299.00,VWS V14.00,2013-05-21 19:56:00,
2013-05-21 14:01:00,72.9,49.1,30.42,North,355,5.0,7.0,43,0.00,,,0.00,323.00,VWS V14.00,2013-05-21 20:01:00,
2013-05-21 14:06:00,72.9,50.3,30.43,North,350,0.0,7.0,45,0.00,,,0.00,691.00,VWS V14.00,2013-05-21 20:06:00,
2013-05-21 14:11:00,73.0,49.2,30.43,North,355,0.0,2.0,43,0.00,,,0.00,536.00,VWS V14.00,2013-05-21 20:11:00,
2013-05-21 14:16:00,73.4,44.8,30.43,North,355,0.0,2.0,36,0.00,,,0.00,661.00,VWS V14.00,2013-05-21 20:16:00,
2013-05-21 14:21:00,74.0,48.8,30.42,North,355,1.0,3.0,41,0.00,,,0.00,687.00,VWS V14.00,2013-05-21 20:21:00,
2013-05-21 14:26:00,74.1,48.3,30.41,NW,321,4.0,6.0,40,0.00,,,0.00,436.00,VWS V14.00,2013-05-21 20:26:00,
2013-05-21 14:31:00,73.8,49.9,30.41,NW,315,5.0,9.0,43,0.00,,,0.00,469.00,VWS V14.00,2013-05-21 20:31:00,
2013-05-21 14:36:00,73.6,49.1,30.41,NW,321,0.0,9.0,42,0.00,,,0.00,534.00,VWS V14.00,2013-05-21 20:36:00,
2013-05-21 14:41:00,73.8,50.5,30.40,NW,317,5.0,10.0,44,0.00,,,0.00,786.00,VWS V14.00,2013-05-21 20:41:00,
2013-05-21 14:46:00,74.5,47.9,30.40,NW,315,5.0,10.0,39,0.00,,,0.00,693.00,VWS V14.00,2013-05-21 20:46:00,
2013-05-21 14:51:00,74.8,48.2,30.40,NW,310,3.0,10.0,39,0.00,,,0.00,345.00,VWS V14.00,2013-05-21 20:51:00,
2013-05-21 14:56:00,74.3,46.4,30.40,NNW,340,6.0,10.0,37,0.00,,,0.00,441.00,VWS V14.00,2013-05-21 20:56:00,
2013-05-21 15:01:00,73.8,47.3,30.40,NNW,331,3.0,10.0,39,0.00,,,0.00,492.00,VWS V14.00,2013-05-21 21:01:00,
2013-05-21 15:06:00,73.5,45.7,30.40,NNW,336,4.0,10.0,37,0.00,,,0.00,357.00,VWS V14.00,2013-05-21 21:06:00,
2013-05-21 15:11:00,73.3,44.8,30.41,North,360,3.0,6.0,36,0.00,,,0.00,306.00,VWS V14.00,2013-05-21 21:11:00,
2013-05-21 15:16:00,72.9,47.2,30.41,NNW,344,4.0,6.0,40,0.00,,,0.00,302.00,VWS V14.00,2013-05-21 21:16:00,
2013-05-21 15:21:00,72.5,45.5,30.41,NNW,346,0.0,7.0,38,0.00,,,0.00,313.00,VWS V14.00,2013-05-21 21:21:00,
2013-05-21 15:26:00,72.5,50.6,30.40,North,350,0.0,6.0,46,0.00,,,0.00,313.00,VWS V14.00,2013-05-21 21:26:00,
2013-05-21 15:31:00,72.5,47.5,30.41,North,350,3.0,6.0,41,0.00,,,0.00,341.00,VWS V14.00,2013-05-21 21:31:00,
2013-05-21 15:36:00,72.6,46.9,30.40,North,350,0.0,6.0,40,0.00,,,0.00,357.00,VWS V14.00,2013-05-21 21:36:00,
2013-05-21 15:41:00,72.6,46.2,30.40,North,351,0.0,3.0,39,0.00,,,0.00,336.00,VWS V14.00,2013-05-21 21:41:00,
2013-05-21 15:46:00,72.8,49.0,30.39,NW,325,0.0,5.0,43,0.00,,,0.00,267.00,VWS V14.00,2013-05-21 21:46:00,
2013-05-21 15:51:00,72.7,45.0,30.40,NW,325,0.0,5.0,37,0.00,,,0.00,172.00,VWS V14.00,2013-05-21 21:51:00,
2013-05-21 15:56:00,72.8,49.6,30.39,NW,325,0.0,0.0,44,0.00,,,0.00,125.00,VWS V14.00,2013-05-21 21:56:00,
2013-05-21 16:01:00,72.6,45.6,30.39,SE,134,0.0,8.0,38,0.00,,,0.00,113.00,VWS V14.00,2013-05-21 22:01:00,
2013-05-21 16:06:00,71.7,41.9,30.40,ESE,119,7.0,7.0,34,0.00,,,0.00,107.00,VWS V14.00,2013-05-21 22:06:00,
2013-05-21 16:11:00,70.6,41.7,30.41,SE,132,7.0,16.0,35,0.00,,,0.00,84.00,VWS V14.00,2013-05-21 22:11:00,
2013-05-21 16:16:00,70.1,44.0,30.42,SE,130,0.0,16.0,39,0.00,,,0.00,81.00,VWS V14.00,2013-05-21 22:16:00,
2013-05-21 16:21:00,69.5,42.8,30.41,NW,321,0.0,0.0,38,0.01,,,0.01,121.00,VWS V14.00,2013-05-21 22:21:00,
2013-05-21 16:26:00,68.4,45.0,30.41,NW,322,1.0,15.0,43,0.01,,,0.01,211.00,VWS V14.00,2013-05-21 22:26:00,
2013-05-21 16:31:00,67.8,48.0,30.41,SSW,194,0.0,15.0,49,0.01,,,0.01,199.00,VWS V14.00,2013-05-21 22:31:00,
2013-05-21 16:36:00,67.4,47.6,30.40,SSW,194,0.0,15.0,49,0.01,,,0.01,125.00,VWS V14.00,2013-05-21 22:36:00,
2013-05-21 16:41:00,67.1,44.5,30.41,SSW,194,0.0,0.0,44,0.01,,,0.01,98.00,VWS V14.00,2013-05-21 22:41:00,
2013-05-21 16:46:00,67.0,47.8,30.40,SSW,194,0.0,0.0,50,0.01,,,0.01,130.00,VWS V14.00,2013-05-21 22:46:00,
2013-05-21 16:51:00,67.0,50.3,30.39,SSW,194,0.0,0.0,55,0.01,,,0.01,135.00,VWS V14.00,2013-05-21 22:51:00,
2013-05-21 16:56:00,66.8,48.1,30.39,SSW,194,0.0,1.0,51,0.01,,,0.01,148.00,VWS V14.00,2013-05-21 22:56:00,
2013-05-21 17:01:00,66.9,48.2,30.40,South,172,1.0,8.0,51,0.01,,,0.01,125.00,VWS V14.00,2013-05-21 23:01:00,
2013-05-21 17:06:00,66.9,46.6,30.40,South,172,2.0,8.0,48,0.01,,,0.01,91.00,VWS V14.00,2013-05-21 23:06:00,
2013-05-21 17:11:00,67.0,46.7,30.40,South,169,0.0,5.0,48,0.01,,,0.01,102.00,VWS V14.00,2013-05-21 23:11:00,
2013-05-21 17:16:00,67.0,46.1,30.40,South,169,0.0,5.0,47,0.01,,,0.01,156.00,VWS V14.00,2013-05-21 23:16:00,
2013-05-21 17:21:00,67.1,50.4,30.40,South,169,0.0,0.0,55,0.00,,,0.01,311.00,VWS V14.00,2013-05-21 23:21:00,
2013-05-21 17:26:00,67.2,49.5,30.39,South,169,0.0,0.0,53,0.00,,,0.01,311.00,VWS V14.00,2013-05-21 23:26:00,
2013-05-21 17:31:00,67.4,47.6,30.40,South,169,0.0,0.0,49,0.00,,,0.01,220.00,VWS V14.00,2013-05-21 23:31:00,
2013-05-21 17:36:00,67.9,45.8,30.39,SE,128,12.0,14.0,45,0.00,,,0.01,193.00,VWS V14.00,2013-05-21 23:36:00,
2013-05-21 17:41:00,68.8,41.5,30.39,SE,130,9.0,20.0,37,0.00,,,0.01,206.00,VWS V14.00,2013-05-21 23:41:00,
2013-05-21 17:46:00,69.3,44.0,30.39,SE,146,5.0,20.0,40,0.00,,,0.01,265.00,VWS V14.00,2013-05-21 23:46:00,
2013-05-21 17:51:00,69.7,45.6,30.38,SSE,163,2.0,20.0,42,0.00,,,0.01,592.00,VWS V14.00,2013-05-21 23:51:00,
2013-05-21 17:56:00,70.4,43.6,30.38,SSE,165,0.0,6.0,38,0.00,,,0.01,279.00,VWS V14.00,2013-05-21 23:56:00,
2013-05-21 18:01:00,70.8,44.0,30.38,SSE,157,0.0,6.0,38,0.00,,,0.01,230.00,VWS V14.00,2013-05-22 00:01:00,
2013-05-21 18:06:00,70.9,44.0,30.38,ESE,121,2.0,11.0,38,0.00,,,0.01,188.00,VWS V14.00,2013-05-22 00:06:00,
2013-05-21 18:11:00,70.6,46.4,30.36,ESE,103,0.0,3.0,42,0.00,,,0.01,193.00,VWS V14.00,2013-05-22 00:11:00,
2013-05-21 18:16:00,70.3,46.2,30.37,ESE,103,0.0,3.0,42,0.00,,,0.01,288.00,VWS V14.00,2013-05-22 00:16:00,
2013-05-21 18:21:00,69.9,45.8,30.36,ESE,103,1.0,4.0,42,0.00,,,0.01,459.00,VWS V14.00,2013-05-22 00:21:00,
2013-05-21 18:26:00,69.7,45.6,30.36,ESE,106,1.0,5.0,42,0.00,,,0.01,436.00,VWS V14.00,2013-05-22 00:26:00,
2013-05-21 18:31:00,69.7,44.3,30.36,SE,140,9.0,9.0,40,0.00,,,0.01,401.00,VWS V14.00,2013-05-22 00:31:00,
2013-05-21 18:36:00,69.7,45.0,30.35,ESE,115,4.0,10.0,41,0.00,,,0.01,392.00,VWS V14.00,2013-05-22 00:36:00,
2013-05-21 18:41:00,69.8,43.8,30.35,ESE,109,3.0,6.0,39,0.00,,,0.01,390.00,VWS V14.00,2013-05-22 00:41:00,
2013-05-21 18:46:00,69.8,43.1,30.36,ESE,107,0.0,6.0,38,0.00,,,0.01,385.00,VWS V14.00,2013-05-22 00:46:00,
2013-05-21 18:51:00,70.1,44.7,30.35,ESE,123,3.0,3.0,40,0.00,,,0.01,367.00,VWS V14.00,2013-05-22 00:51:00,
2013-05-21 18:56:00,70.2,46.1,30.35,ESE,102,0.0,4.0,42,0.00,,,0.01,330.00,VWS V14.00,2013-05-22 00:56:00,
2013-05-21 19:01:00,70.1,43.3,30.35,SE,128,0.0,6.0,38,0.00,,,0.01,218.00,VWS V14.00,2013-05-22 01:01:00,
2013-05-21 19:06:00,70.1,45.3,30.33,SE,130,0.0,1.0,41,0.00,,,0.01,345.00,VWS V14.00,2013-05-22 01:06:00,
2013-05-21 19:11:00,70.1,46.0,30.33,SE,130,0.0,2.0,42,0.00,,,0.01,111.00,VWS V14.00,2013-05-22 01:11:00,
2013-05-21 19:16:00,70.1,44.7,30.33,SE,140,3.0,8.0,40,0.00,,,0.01,109.00,VWS V14.00,2013-05-22 01:16:00,
2013-05-21 19:21:00,70.1,46.6,30.33,SSE,161,0.0,0.0,43,0.00,,,0.01,114.00,VWS V14.00,2013-05-22 01:21:00,
2013-05-21 19:26:00,70.1,46.0,30.32,SSE,160,0.0,3.0,42,0.00,,,0.01,109.00,VWS V14.00,2013-05-22 01:26:00,
2013-05-21 19:31:00,70.2,45.4,30.32,SSE,153,0.0,4.0,41,0.00,,,0.01,197.00,VWS V14.00,2013-05-22 01:31:00,
2013-05-21 19:36:00,70.3,44.2,30.32,SSE,155,0.0,3.0,39,0.00,,,0.01,144.00,VWS V14.00,2013-05-22 01:36:00,
2013-05-21 19:41:00,70.3,44.9,30.32,SSE,153,3.0,3.0,40,0.00,,,0.01,69.00,VWS V14.00,2013-05-22 01:41:00,
2013-05-21 19:46:00,70.2,44.1,30.32,SE,138,0.0,4.0,39,0.00,,,0.01,35.00,VWS V14.00,2013-05-22 01:46:00,
2013-05-21 19:51:00,70.0,42.6,30.33,South,169,3.0,4.0,37,0.00,,,0.01,28.00,VWS V14.00,2013-05-22 01:51:00,
2013-05-21 19:56:00,69.7,44.3,30.33,South,169,0.0,5.0,40,0.00,,,0.01,19.00,VWS V14.00,2013-05-22 01:56:00,
2013-05-21 20:01:00,69.4,42.7,30.33,SSE,157,0.0,6.0,38,0.00,,,0.01,12.00,VWS V14.00,2013-05-22 02:01:00,
2013-05-21 20:06:00,68.8,41.5,30.33,SSE,147,3.0,4.0,37,0.00,,,0.01,11.00,VWS V14.00,2013-05-22 02:06:00,
2013-05-21 20:11:00,68.4,42.5,30.31,South,188,2.0,10.0,39,0.00,,,0.01,9.00,VWS V14.00,2013-05-22 02:11:00,
2013-05-21 20:16:00,68.1,42.2,30.31,South,178,0.0,10.0,39,0.00,,,0.01,11.00,VWS V14.00,2013-05-22 02:16:00,
2013-05-21 20:21:00,67.8,42.0,30.31,SE,146,2.0,2.0,39,0.00,,,0.01,11.00,VWS V14.00,2013-05-22 02:21:00,
2013-05-21 20:26:00,67.4,42.3,30.32,SSE,148,0.0,5.0,40,0.00,,,0.01,9.00,VWS V14.00,2013-05-22 02:26:00,
2013-05-21 20:31:00,67.2,42.7,30.32,SSE,150,0.0,5.0,41,0.00,,,0.01,12.00,VWS V14.00,2013-05-22 02:31:00,
2013-05-21 20:36:00,66.9,43.1,30.32,SSE,150,0.0,0.0,42,0.00,,,0.01,14.00,VWS V14.00,2013-05-22 02:36:00,
2013-05-21 20:41:00,66.7,44.1,30.32,SSE,150,0.0,1.0,44,0.00,,,0.01,7.00,VWS V14.00,2013-05-22 02:41:00,
2013-05-21 20:46:00,66.1,43.0,30.33,SSE,150,3.0,4.0,43,0.00,,,0.01,5.00,VWS V14.00,2013-05-22 02:46:00,
2013-05-21 20:51:00,65.4,42.9,30.34,SSE,150,4.0,4.0,44,0.00,,,0.01,5.00,VWS V14.00,2013-05-22 02:51:00,
2013-05-21 20:56:00,64.6,42.8,30.34,SSE,150,0.0,4.0,45,0.00,,,0.01,0.00,VWS V14.00,2013-05-22 02:56:00,
2013-05-21 21:01:00,64.1,42.3,30.34,South,173,2.0,6.0,45,0.00,,,0.01,0.00,VWS V14.00,2013-05-22 03:01:00,
2013-05-21 21:06:00,63.7,43.1,30.33,South,173,1.0,2.0,47,0.00,,,0.01,0.00,VWS V14.00,2013-05-22 03:06:00,
2013-05-21 21:11:00,63.5,42.9,30.33,South,173,0.0,3.0,47,0.00,,,0.01,0.00,VWS V14.00,2013-05-22 03:11:00,
2013-05-21 21:16:00,63.3,43.3,30.33,South,173,0.0,4.0,48,0.00,,,0.01,0.00,VWS V14.00,2013-05-22 03:16:00,
2013-05-21 21:21:00,63.0,43.0,30.33,SSE,161,3.0,5.0,48,0.00,,,0.01,0.00,VWS V14.00,2013-05-22 03:21:00,
2013-05-21 21:26:00,62.7,42.8,30.33,SSE,160,3.0,5.0,48,0.00,,,0.01,0.00,VWS V14.00,2013-05-22 03:26:00,
2013-05-21 21:31:00,62.7,42.2,30.33,SSE,160,0.0,5.0,47,0.00,,,0.01,0.00,VWS V14.00,2013-05-22 03:31:00,
2013-05-21 21:36:00,62.7,45.3,30.33,SSE,160,0.0,0.0,53,0.00,,,0.01,0.00,VWS V14.00,2013-05-22 03:36:00,
2013-05-21 21:41:00,62.4,46.0,30.34,SSE,160,0.0,0.0,55,0.00,,,0.01,0.00,VWS V14.00,2013-05-22 03:41:00,
2013-05-21 21:46:00,62.0,45.7,30.35,SSE,160,0.0,0.0,55,0.00,,,0.01,0.00,VWS V14.00,2013-05-22 03:46:00,
2013-05-21 21:51:00,61.8,46.0,30.35,SSE,161,2.0,2.0,56,0.00,,,0.01,0.00,VWS V14.00,2013-05-22 03:51:00,
2013-05-21 21:56:00,61.4,43.6,30.36,SSE,167,2.0,4.0,52,0.00,,,0.01,0.00,VWS V14.00,2013-05-22 03:56:00,
2013-05-21 22:01:00,61.1,43.4,30.36,South,169,2.0,5.0,52,0.00,,,0.01,0.00,VWS V14.00,2013-05-22 04:01:00,
2013-05-21 22:06:00,61.0,43.8,30.37,South,172,1.0,4.0,53,0.00,,,0.01,0.00,VWS V14.00,2013-05-22 04:06:00,
2013-05-21 22:11:00,61.0,43.3,30.34,SSE,160,2.0,8.0,52,0.00,,,0.01,0.00,VWS V14.00,2013-05-22 04:11:00,
2013-05-21 22:16:00,61.1,43.4,30.34,SSE,157,4.0,8.0,52,0.00,,,0.01,0.00,VWS V14.00,2013-05-22 04:16:00,
2013-05-21 22:21:00,61.3,43.5,30.33,SSE,159,5.0,5.0,52,0.00,,,0.01,0.00,VWS V14.00,2013-05-22 04:21:00,
2013-05-21 22:26:00,61.3,43.5,30.34,SSE,164,0.0,5.0,52,0.00,,,0.01,0.00,VWS V14.00,2013-05-22 04:26:00,
2013-05-21 22:31:00,61.3,44.0,30.34,SSE,164,0.0,5.0,53,0.00,,,0.01,0.00,VWS V14.00,2013-05-22 04:31:00,
2013-05-21 22:36:00,61.0,43.3,30.35,SSE,164,0.0,0.0,52,0.00,,,0.01,0.00,VWS V14.00,2013-05-22 04:36:00,
2013-05-21 22:41:00,60.8,43.6,30.35,SSE,164,1.0,3.0,53,0.00,,,0.01,0.00,VWS V14.00,2013-05-22 04:41:00,
2013-05-21 22:46:00,60.6,43.9,30.35,SSE,164,0.0,3.0,54,0.00,,,0.01,0.00,VWS V14.00,2013-05-22 04:46:00,
2013-05-21 22:51:00,60.3,43.6,30.36,SSE,164,1.0,2.0,54,0.00,,,0.01,0.00,VWS V14.00,2013-05-22 04:51:00,
2013-05-21 22:56:00,59.9,44.2,30.37,SSE,163,5.0,5.0,56,0.00,,,0.01,0.00,VWS V14.00,2013-05-22 04:56:00,
2013-05-21 23:01:00,59.5,45.2,30.37,SE,146,13.0,15.0,59,0.00,,,0.01,0.00,VWS V14.00,2013-05-22 05:01:00,
2013-05-21 23:06:00,59.7,45.4,30.37,South,188,9.0,16.0,59,0.01,,,0.02,0.00,VWS V14.00,2013-05-22 05:06:00,
2013-05-21 23:11:00,59.3,43.6,30.36,SSE,155,10.0,16.0,56,0.02,,,0.03,0.00,VWS V14.00,2013-05-22 05:11:00,
2013-05-21 23:16:00,58.6,46.5,30.35,ESE,102,0.0,21.0,64,0.09,,,0.10,0.00,VWS V14.00,2013-05-22 05:16:00,
2013-05-21 23:21:00,57.8,48.8,30.35,SSE,157,0.0,0.0,72,0.15,,,0.16,0.00,VWS V14.00,2013-05-22 05:21:00,
2013-05-21 23:26:00,56.9,48.0,30.36,SSW,195,2.0,6.0,72,0.15,,,0.16,0.00,VWS V14.00,2013-05-22 05:26:00,
2013-05-21 23:31:00,56.2,48.4,30.37,South,178,5.0,6.0,75,0.15,,,0.16,0.00,VWS V14.00,2013-05-22 05:31:00,
2013-05-21 23:36:00,55.8,48.4,30.37,South,181,0.0,0.0,76,0.15,,,0.16,0.00,VWS V14.00,2013-05-22 05:36:00,
2013-05-21 23:41:00,55.2,48.8,30.36,South,178,0.0,3.0,79,0.15,,,0.16,0.00,VWS V14.00,2013-05-22 05:41:00,
2013-05-21 23:46:00,54.8,49.4,30.36,South,178,0.0,3.0,82,0.15,,,0.16,0.00,VWS V14.00,2013-05-22 05:46:00,
2013-05-21 23:51:00,54.4,49.3,30.37,South,178,0.0,0.0,83,0.15,,,0.16,0.00,VWS V14.00,2013-05-22 05:51:00,
2013-05-21 23:56:00,54.0,49.6,30.36,South,178,0.0,0.0,85,0.15,,,0.16,0.00,VWS V14.00,2013-05-22 05:56:00,